www.pogodaiklimat.ru

Погода и климат >> Архив погоды >> Россия >> Якутия >> Хатырык-Хомо


ПОГОДА в Хатырык-Хомо

  • Прогноз погоды в Хатырык-Хомо
  • Монитор погоды в Хатырык-Хомо

АРХИВ ПОГОДЫ в Хатырык-Хомо

Время (UTC), дата Ветер
(напр.,м/с)
 
Видим.   Явления Облачность Т
(С)
Тd
(С)
f
(%)
Тe
(С)
Тes
(С)
Комфортность P
(гПа)
Po
(гПа)
Тmin
(С)
Tmax
(С)
R
(мм)
R24
(мм)
S
(см)
21 12.07 штиль 0 50 км 3/0
[Ci fib]
+16.3 +14.7 90 +16 +18 1000.1 997.9
00 13.07 штиль 0 50 км ясно +26.5 +18.0 60 +31 +41 душно 1006.7 998.0 +14.5
03 13.07 штиль 0 50 км 9/3 1000 м
[Cu Sc Cs]
+31.4 +19.2 48 +37 +46 очень
душно
1005.6 997.1
06 13.07 штиль 0 50 км 4/3 1000 м
[Cu med, cong Cs]
+32.5 +18.2 43 +37 +46 очень
душно
1004.2 995.7
09 13.07 штиль 0 50 км 8/4 600 м
[Cb cap Cs]
+32.6 +17.5 41 +37 +39 очень
душно
1003.2 994.8
12 13.07 штиль 0 50 км ясно +25.9 +20.2 71 +32 +32 очень
душно
1003.8 996.1 +34.9
15 13.07 штиль 0 50 км 10/0
[Ac As Cs]
+19.0 +16.7 87 +20 +20 1004.0 996.0
18 13.07 штиль 0 50 км 10/0
[Ac As Cs]
+15.7 +14.5 93 +15 +15 1004.0 995.0
21 13.07 штиль 0 50 км 10/3 1000 м
[Sc Cs]
+16.2 +14.5 90 +16 +17 1005.0 996.0
00 14.07 штиль 0 50 км 10/3 600 м
[Cb cap Ac As Cs]
+22.9 +19.1 79 +29 +32 очень
душно
1005.2 996.4 +15.7
03 14.07 С 1 50 км 10/4 600 м
[Cb cap Ac trans Cs]
+27.2 +19.0 61 +32 +37 очень
душно
1005.7 997.0
06 14.07 С 1 50 км 10/3 600 м
[Cb cap Ac As Cs]
+24.0 +18.1 70 +28 +32 душно 1006.6 997.8
09 14.07 С 1 50 км 10/0
[Ac As Cs]
+25.7 +18.5 64 +30 +32 душно 1006.5 997.8
12 14.07 СЗ 1 50 км 10/0
[As trans Cs]
+23.8 +17.9 70 +28 +28 душно 1007.6 998.8 +29.5
15 14.07 штиль 0 50 км 10/0
[Ac trans Cs]
+19.5 +14.0 71 +21 +21 комфорт 1009.0 1000.0
18 14.07 СЗ 1 50 км 8/0
[Ci fib]
+17.4 +14.6 84 +18 +18 1009.6 1000.6
21 14.07 СЗ 1 50 км 4/3 1000 м
[Sc Cs]
+15.8 +12.3 80 +16 +18 1010.4 1001.2
00 15.07 СЗ 2 50 км 1/0
[Ci fib]
+19.1 +13.3 69 +21 +28 комфорт 1010.3 1001.3 +15.8
03 15.07 СЗ 3 50 км 8/0
[Ci fib]
+21.8 +13.9 61 +25 +33 комфорт 1010.4 1001.6
06 15.07 СЗ 5 50 км 6/0
[Cs]
+24.3 +13.1 50 +26 +31 жарко 1010.5 1001.7
09 15.07 СЗ 5 20 км дым 1/0
[Cs]
+24.0 +12.1 47 +26 +27 жарко 1010.1 1001.3
12 15.07 СЗ 2 20 км дым 1/0
[Ci fib]
+21.4 +10.4 49 +23 +23 комфорт 1010.6 1001.8 +26.0
15 15.07 СЗ 4 50 км 10/0
[Ac As Cs]
+17.9 +9.6 58 +18 +18 1011.2 1002.2
18 15.07 СЗ 2 50 км 3/0
[Ac trans]
+14.6 +7.3 62 +14 +14 1011.8 1002.7
21 15.07 СЗ 2 50 км 3/0
[Ci fib]
+14.3 +8.3 67 +14 +15 1012.2 1003.1
00 16.07 СЗ 2 50 км 3/0
[Ci fib]
+17.0 +8.0 55 +17 +24 1012.6 1003.6 +14.3
03 16.07 СЗ 4 50 км 8/0
[Ci fib]
+20.3 +9.3 49 +22 +28 комфорт 1012.2 1003.2
06 16.07 СЗ 5 20 км дым 3/0
[Ci fib]
+22.9 +10.6 46 +25 +30 комфорт 1011.0 1002.2
09 16.07 СЗ 3 20 км дым 9/0
[Ci fib]
+22.8 +9.8 44 +25 +27 комфорт 1010.1 1001.3
12 16.07 штиль 0 20 км дым 10/0
[Ac As Cs]
+19.1 +8.8 51 +20 +20 1010.3 1001.3 +24.0
15 16.07 штиль 0 50 км 8/0
[Ci fib]
+11.9 +10.7 92 +11 +11 1009.8 1000.7
18 16.07 штиль 0 50 км 1/0
[Ci fib]
+10.3 +9.5 95 +9 +9 1009.3 1000.0
21 16.07 штиль 0 50 км 10/0
[Ac As Cs]
+9.7 +7.8 88 +9 +10 1007.9 998.7
00 17.07 штиль 0 50 км 10/0
[Ac As Cs]
+16.4 +11.8 74 +16 +21 1005.2 996.2 +9.7
03 17.07 штиль 0 50 км 10/8 600 м
[Cb cap Ac As]
+20.9 +13.6 63 +23 +24 комфорт 1003.1 994.4
06 17.07 З 1 20 км слаб. ливневой дождь 10/10 600 м
[Cb cap]
+18.6 +18.1 97 +21 +21 комфорт 1001.5 992.6
09 17.07 З 5 50 км {ливн. осадки} 6/3 600 м
[Cb cap Ci fib]
+24.2 +19.2 74 +29 +30 душно 998.8 990.1
12 17.07 С 3 50 км {ливн. осадки} 10/10 600 м
[Cb cap]
+16.2 +15.3 94 +16 +16 1000.9 992.0 +25.3 7
15 17.07 СЗ 1 50 км 1/0
[Ci fib]
+13.3 +12.4 94 +13 +13 1001.3 992.3
18 17.07 С 3 50 км 1/0
[Ci fib]
+10.2 +9.0 92 +8 +8 1001.7 992.5
21 17.07 СЗ 5 50 км 1/0
[Ci fib]
+10.6 +7.3 80 +8 +8 1002.4 993.2
00 18.07 СЗ 4 50 км ясно +12.7 +8.3 75 +11 +16 1003.4 994.4 +10.2
03 18.07 СЗ 5 50 км 3/3 1000 м
[Cu med, cong]
+15.5 +8.6 63 +14 +19 1004.8 995.7
06 18.07 СЗ 5 50 км 4/4 1000 м
[Cu med, cong]
+17.2 +8.5 57 +17 +20 1006.0 997.0
09 18.07 СЗ 5 50 км 8/6 600 м
[Cb cap Cs]
+16.8 +8.2 57 +16 +17 1007.2 998.2
12 18.07 СЗ 4 50 км 8/8 600 м
[Cb cap]
+15.2 +7.1 58 +14 +14 1008.2 999.1 +18.1
15 18.07 СЗ 2 50 км 3/1 1000 м
[Cb calv]
+11.3 +5.7 68 +10 +10 1008.7 999.4
18 18.07 СЗ 2 50 км 3/0
[Ac trans]
+8.4 +3.3 70 +7 +7 1008.8 999.5
21 18.07 СЗ 1 50 км 10/0
[Ac As Cs]
+9.0 +6.4 84 +8 +9 1009.6 1000.3
00 19.07 СЗ 1 50 км 10/0
[Ac As Cs]
+10.3 +6.9 79 +10 +14 1011.8 1002.5 +8.4
03 19.07 С 2 50 км 10/8 1000 м
[Sc Cs]
+14.3 +5.4 55 +14 +16 1012.2 1003.1
06 19.07 С 3 50 км 10/8 1000 м
[Sc Cs]
+14.9 +4.6 50 +14 +16 1013.8 1004.7
09 19.07 СЗ 2 50 км 9/6 1000 м
[Sc Ac trans]
+15.5 +4.4 48 +16 +16 1014.9 1005.7
12 19.07 СЗ 2 50 км 1/1 1000 м
[Sc]
+15.4 +4.5 48 +15 +16 1015.6 1006.4 +15.5

 

Местоположение метеостанции Хатырык-Хомо (Якутия, Россия): широта 63.95 долгота 124.80 высота над уровнем моря 77 м.

В архиве по умолчанию представлена погода в Хатырык-Хомо за последнюю неделю. Архивные данные за месяц целиком и за предыдущие месяцы, начиная с января 2011 года, Вы можете получить, выбрав интересующий диапазон дат из раскрывающегося списка и нажав кнопку "Ввод!".


*Определитесь, кто Вы:
робот инопланетянин человек

Внимание! Время в таблицах - всемирное. Для получения местного времени необходимо прибавить поправку, которая равна 9 ч.

Смотрите также архив погоды в соседних городах и на ближайших метеорологических станциях:

Погода в Сого-Хае (Якутия, Россия) (86 км)
Погода в Сангаре (Якутия, Россия) (127 км)
Погода в Бестяхской Звероферме (Якутия, Россия) (154 км)
Погода в Вилюйске (Якутия, Россия) (158 км)
Погода в Бердигестяхе (Якутия, Россия) (217 км)
Погода в Тонгулахе (Якутия, Россия) (226 км)
Погода в Батамае (Якутия, Россия) (231 км)
Погода в Верхневилюйске (Якутия, Россия) (233 км)
Погода в Сеген-Кюеле (Якутия, Россия) (268 км)
Погода в Намцах (Якутия, Россия) (276 км)

Пояснения к столбцам:

Ветер - указаны скорость ветра в м/с - средняя за 10 мин, порывы в срок и между сроками (в фигурных скобках) и направление, откуда дует ветер: С - северный, СВ - северо-восточный, В - восточный, ЮВ - юго-восточный, Ю - южный, ЮЗ - юго-западный, З - западный, СЗ - северо-западный.
Видимость - горизонтальная дальность видимости в метрах или километрах. При видимости от 1 до 10 км при отсутствии осадков обычно наблюдается дымка, при ухудшении видимости до 1 км и менее - туман. В сухую погоду видимость может ухудшаться дымом, пылью или мглою.
Явления - указаны атмосферные явления, наблюдавшиеся в срок или в последний час перед сроком; фигурными скобками обозначены явления, наблюдавшиеся между сроками (за 1-3 часа до срока); квадратными скобками обозначены град или гололедные отложения с указанием их диаметра в мм.
Облачность - указаны через наклонную черту общая и нижняя облачность в баллах и высота нижней границы облаков в метрах; квадратными скобками обозначены формы облаков: Ci - перистые, Cs - перисто-слоистые, Cc - перисто-кучевые, Ac - высококучевые, As - высокослоистые, Sc - слоисто-кучевые, Ns - слоисто-дождевые, Cu - кучевые, Cb - кучево-дождевые. Подробнее классификацию облаков см. в Атласе облаков (PDF).
T - Температура воздуха - температура, измеренная на высоте 2 м над землей.
Td - Температура точки росы - температура, при понижении до которой содержащийся в воздухе водяной пар достигнет насыщения.
f - Относительная влажность воздуха - влажноcть воздуха, измеренная на высоте 2 м над землей.
Te - Эффективная температура - температура, которую ощущает одетый по сезону человек в тени. Характеристика душности погоды. При расчете учитывается влияние влажности воздуха и скорости ветра на теплоощущения человека.
Tes - Эффективная температура на солнце - температура, которую ощущает человек, с поправкой на солнечный нагрев. Характеристика знойности погоды. Зависит от высоты солнца над горизонтом, облачности и скорости ветра. Ночью, в пасмурную погоду, а также при ветре 12 м/с и более поправка равна нулю.
P - Атмосферное давление - приведенное к уровню моря атмосферное давление.
Po - Атмосферное давление - измеренное на уровне метеостанции атмосферное давление.
Tmin - Минимальная температура - минимум температуры воздуха на высоте 2 м над землей.
Tmax - Максимальная температура - максимум температуры воздуха на высоте 2 м над землей.
R - Количество осадков - Количество выпавших осадков за период времени, мм. При наведении курсора мыши на число - период времени, за который выпало указанное количество осадков.
R24 - Количество осадков - Количество выпавших осадков за 24 часа, мм.
S - Снежный покров - Высота снежного покрова, см. При наведении курсора мыши на число - состояние снежного покрова и степень покрытия местности в баллах.